EWG17V EDDL-LIRQ

Flight info

Callsign EWG17V
Flight time 1h 28m
Altitude 37000
Route DODEN7Z DODEN Y852 TUSUK DCT ULNOK L607 ABUKA DCT BATUB DCT TIRUL M738 NATAG DCT LORLO DCT ADOSA DCT BOA DCT PETAS DCT OGAPU Q58 BIKTU BIKTU1V
Aircraft A319/M-SDE3FGHIRWY/LB1

Departure

Time 2026-05-07 15:41
Airport Düsseldorf Airport (EDDL)

Arrival

Time 2026-05-07 17:10
Airport Florence Airport, Peretola (LIRQ)
Time Latitude Longitude Altitude Speed Heading
2026-05-07 15:21 51.28493 6.77081 124 ft 0 kts 322°
2026-05-07 15:21 51.28492 6.77081 124 ft 0 kts 322°
2026-05-07 15:31 51.28567 6.77217 128 ft 0 kts 322°
2026-05-07 15:33 51.28555 6.77231 123 ft 4 kts 322°
2026-05-07 15:33 51.28537 6.77254 124 ft 4 kts 319°
2026-05-07 15:33 51.28521 6.77285 126 ft 4 kts 282°
2026-05-07 15:34 51.28524 6.77323 128 ft 4 kts 237°
2026-05-07 15:34 51.28540 6.77357 126 ft 4 kts 230°
2026-05-07 15:34 51.28545 6.77365 127 ft 0 kts 232°
2026-05-07 15:36 51.28544 6.77364 127 ft 1 kts 232°
2026-05-07 15:36 51.28537 6.77349 125 ft 3 kts 234°
2026-05-07 15:36 51.28508 6.77279 125 ft 10 kts 236°
2026-05-07 15:36 51.28461 6.77178 126 ft 12 kts 233°
2026-05-07 15:37 51.28403 6.77059 127 ft 15 kts 232°
2026-05-07 15:37 51.28354 6.76918 127 ft 14 kts 271°
2026-05-07 15:37 51.28420 6.76809 124 ft 16 kts 321°
2026-05-07 15:37 51.28431 6.76653 126 ft 18 kts 233°
2026-05-07 15:38 51.28352 6.76486 123 ft 19 kts 233°
2026-05-07 15:38 51.28280 6.76335 124 ft 17 kts 233°
2026-05-07 15:38 51.28203 6.76177 127 ft 19 kts 232°
2026-05-07 15:38 51.28121 6.76005 128 ft 20 kts 233°
2026-05-07 15:39 51.28032 6.75816 126 ft 22 kts 232°
2026-05-07 15:39 51.27962 6.75674 129 ft 11 kts 232°
2026-05-07 15:39 51.27957 6.75557 128 ft 11 kts 313°
2026-05-07 15:39 51.27992 6.75528 125 ft 0 kts 337°
2026-05-07 15:40 51.28008 6.75517 126 ft 8 kts 337°
2026-05-07 15:40 51.28077 6.75494 127 ft 12 kts
2026-05-07 15:40 51.28143 6.75584 128 ft 15 kts 52°
2026-05-07 15:41 51.28326 6.75966 129 ft 73 kts 52°
2026-05-07 15:41 51.28757 6.76868 128 ft 130 kts 53°
2026-05-07 15:41 51.29369 6.78152 472 ft 146 kts 52°
2026-05-07 15:41 51.29970 6.79424 1115 ft 145 kts 51°
2026-05-07 15:42 51.30595 6.80746 1584 ft 157 kts 51°
2026-05-07 15:42 51.31302 6.82233 1907 ft 179 kts 51°
2026-05-07 15:42 51.32109 6.83924 2225 ft 204 kts 51°
2026-05-07 15:42 51.33024 6.85844 2677 ft 229 kts 51°
2026-05-07 15:43 51.34024 6.87997 3262 ft 250 kts 53°
2026-05-07 15:43 51.34978 6.90379 4191 ft 259 kts 66°
2026-05-07 15:43 51.35258 6.93215 5159 ft 268 kts 93°
2026-05-07 15:43 51.34976 6.96193 6187 ft 272 kts 98°
2026-05-07 15:44 51.34663 6.99200 7126 ft 276 kts 99°
2026-05-07 15:44 51.34346 7.02250 8028 ft 281 kts 99°
2026-05-07 15:44 51.34024 7.05365 8936 ft 286 kts 99°
2026-05-07 15:44 51.33697 7.08542 9836 ft 291 kts 99°
2026-05-07 15:45 51.33368 7.11764 10624 ft 296 kts 99°
2026-05-07 15:45 51.32958 7.14992 11240 ft 308 kts 107°
2026-05-07 15:45 51.32065 7.18233 11513 ft 330 kts 122°
2026-05-07 15:45 51.30603 7.21146 12084 ft 341 kts 136°
2026-05-07 15:46 51.27170 7.26509 13647 ft 349 kts 136°
2026-05-07 15:46 51.25436 7.29257 14307 ft 354 kts 136°
2026-05-07 15:46 51.23682 7.32041 14983 ft 357 kts 136°
2026-05-07 15:47 51.21910 7.34851 15666 ft 360 kts 136°
2026-05-07 15:47 51.20120 7.37676 16321 ft 364 kts 136°
2026-05-07 15:47 51.18305 7.40529 16998 ft 367 kts 136°
2026-05-07 15:47 51.16478 7.43400 17674 ft 370 kts 136°
2026-05-07 15:48 51.14628 7.46301 18341 ft 374 kts 137°
2026-05-07 15:48 51.12773 7.49165 18934 ft 377 kts 137°
2026-05-07 15:48 51.10866 7.52068 19546 ft 380 kts 137°
2026-05-07 15:48 51.08940 7.54984 20158 ft 383 kts 138°
2026-05-07 15:49 51.07000 7.57924 20787 ft 386 kts 138°
2026-05-07 15:49 51.05047 7.60891 21374 ft 390 kts 137°
2026-05-07 15:49 51.03077 7.63888 21928 ft 393 kts 137°
2026-05-07 15:49 51.01090 7.66910 22398 ft 400 kts 137°
2026-05-07 15:50 50.99077 7.69976 22658 ft 410 kts 137°
2026-05-07 15:50 50.96971 7.73067 23114 ft 414 kts 142°
2026-05-07 15:50 50.94606 7.75690 23599 ft 416 kts 150°
2026-05-07 15:50 50.92128 7.78114 24009 ft 419 kts 149°
2026-05-07 15:51 50.89642 7.80555 24424 ft 422 kts 149°
2026-05-07 15:51 50.87138 7.83014 24836 ft 425 kts 149°
2026-05-07 15:51 50.84619 7.85492 25257 ft 427 kts 149°
2026-05-07 15:51 50.82081 7.87990 25661 ft 430 kts 149°
2026-05-07 15:52 50.79527 7.90500 26078 ft 433 kts 149°
2026-05-07 15:52 50.76957 7.93017 26490 ft 435 kts 149°
2026-05-07 15:52 50.74407 7.95511 26883 ft 438 kts 149°
2026-05-07 15:52 50.71813 7.98045 27293 ft 441 kts 149°
2026-05-07 15:53 50.69195 8.00601 27687 ft 444 kts 149°
2026-05-07 15:53 50.66561 8.03168 28081 ft 446 kts 149°
2026-05-07 15:53 50.63900 8.05740 28469 ft 449 kts 150°
2026-05-07 15:53 50.61088 8.07887 28865 ft 450 kts 160°
2026-05-07 15:54 50.58086 8.09330 29219 ft 451 kts 169°
2026-05-07 15:54 50.54962 8.10028 29566 ft 453 kts 177°
2026-05-07 15:54 50.51806 8.10419 29913 ft 455 kts 176°
2026-05-07 15:54 50.48637 8.10827 30235 ft 458 kts 176°
2026-05-07 15:55 50.46527 8.11105 30411 ft 459 kts 176°
2026-05-07 15:55 50.42296 8.11668 30865 ft 460 kts 176°
2026-05-07 15:55 50.39105 8.12090 31261 ft 460 kts 176°
2026-05-07 15:55 50.35912 8.12511 31655 ft 459 kts 176°
2026-05-07 15:56 50.32787 8.12922 32039 ft 459 kts 176°
2026-05-07 15:56 50.30671 8.13202 32302 ft 458 kts 176°
2026-05-07 15:56 50.27496 8.13618 32706 ft 458 kts 176°
2026-05-07 15:56 50.24314 8.14030 33109 ft 457 kts 176°
2026-05-07 15:57 50.21145 8.14436 33510 ft 457 kts 176°
2026-05-07 15:57 50.17973 8.14852 33928 ft 457 kts 175°
2026-05-07 15:57 50.14916 8.15681 34279 ft 458 kts 166°
2026-05-07 15:57 50.11897 8.17279 34615 ft 459 kts 157°
2026-05-07 15:58 50.09070 8.19582 34941 ft 460 kts 150°
2026-05-07 15:58 50.06363 8.22124 35268 ft 459 kts 150°
2026-05-07 15:58 50.03618 8.24672 35581 ft 459 kts 150°
2026-05-07 15:58 50.00869 8.27202 35887 ft 459 kts 151°
2026-05-07 15:59 49.98120 8.29724 36198 ft 459 kts 151°
2026-05-07 15:59 49.95360 8.32251 36523 ft 458 kts 151°
2026-05-07 15:59 49.92611 8.34773 36840 ft 458 kts 151°
2026-05-07 15:59 49.89868 8.37290 37018 ft 458 kts 151°
2026-05-07 16:00 49.87167 8.39772 37052 ft 456 kts 151°
2026-05-07 16:00 49.82164 8.45845 37053 ft 459 kts 138°
2026-05-07 16:01 49.77515 8.52635 37054 ft 459 kts 138°
2026-05-07 16:01 49.72566 8.58813 37052 ft 455 kts 152°
2026-05-07 16:02 49.66711 8.62312 37054 ft 450 kts 171°
2026-05-07 16:02 49.60717 8.63973 37047 ft 449 kts 172°
2026-05-07 16:03 49.54595 8.65680 37048 ft 450 kts 172°
2026-05-07 16:03 49.48423 8.67398 37049 ft 450 kts 171°
2026-05-07 16:04 49.42463 8.70485 37048 ft 453 kts 160°
2026-05-07 16:04 49.36624 8.74167 37034 ft 453 kts 160°
2026-05-07 16:05 49.30783 8.77814 37033 ft 453 kts 160°
2026-05-07 16:05 49.24977 8.81449 37028 ft 454 kts 160°
2026-05-07 16:06 49.19154 8.85097 37036 ft 453 kts 160°
2026-05-07 16:06 49.13306 8.88744 37018 ft 453 kts 160°
2026-05-07 16:07 49.07458 8.92372 37023 ft 454 kts 160°
2026-05-07 16:07 49.01606 8.95983 37026 ft 454 kts 160°
2026-05-07 16:08 48.95783 8.99584 37035 ft 455 kts 160°
2026-05-07 16:08 48.90114 9.03086 37033 ft 455 kts 160°
2026-05-07 16:09 48.84237 9.06690 37044 ft 455 kts 161°
2026-05-07 16:09 48.78364 9.10301 37049 ft 455 kts 160°
2026-05-07 16:10 48.72534 9.13883 37052 ft 455 kts 161°
2026-05-07 16:10 48.66657 9.17465 37045 ft 455 kts 161°
2026-05-07 16:11 48.60780 9.21034 37050 ft 454 kts 161°
2026-05-07 16:11 48.54903 9.24603 37046 ft 454 kts 161°
2026-05-07 16:12 48.49036 9.28163 37018 ft 454 kts 161°
2026-05-07 16:12 48.43193 9.31696 37021 ft 455 kts 161°
2026-05-07 16:13 48.37372 9.35205 37020 ft 454 kts 161°
2026-05-07 16:13 48.31495 9.38737 37019 ft 454 kts 161°
2026-05-07 16:14 48.25626 9.42257 37002 ft 454 kts 161°
2026-05-07 16:14 48.19860 9.45705 37005 ft 454 kts 161°
2026-05-07 16:15 48.13978 9.49211 37006 ft 454 kts 161°
2026-05-07 16:15 48.08130 9.52693 37006 ft 455 kts 161°
2026-05-07 16:16 48.02270 9.56323 37007 ft 457 kts 155°
2026-05-07 16:16 47.96911 9.61513 37012 ft 461 kts 148°
2026-05-07 16:17 47.91648 9.66901 37010 ft 461 kts 149°
2026-05-07 16:17 47.86325 9.72320 37019 ft 461 kts 149°
2026-05-07 16:18 47.81057 9.77681 37018 ft 462 kts 149°
2026-05-07 16:18 47.75799 9.83022 37012 ft 462 kts 149°
2026-05-07 16:19 47.70483 9.88404 37016 ft 462 kts 149°
2026-05-07 16:19 47.65187 9.93736 37017 ft 462 kts 149°
2026-05-07 16:20 47.59873 9.99090 37020 ft 463 kts 149°
2026-05-07 16:20 47.54625 10.04365 37010 ft 463 kts 149°
2026-05-07 16:21 47.49333 10.09669 37012 ft 463 kts 149°
2026-05-07 16:21 47.43991 10.15006 37019 ft 464 kts 149°
2026-05-07 16:22 47.38619 10.20351 37022 ft 464 kts 149°
2026-05-07 16:22 47.33274 10.25667 37001 ft 464 kts 150°
2026-05-07 16:23 47.27914 10.30999 37014 ft 464 kts 150°
2026-05-07 16:23 47.22579 10.36279 37011 ft 464 kts 150°
2026-05-07 16:24 47.17209 10.41576 37024 ft 464 kts 150°
2026-05-07 16:24 47.11847 10.46863 37018 ft 464 kts 150°
2026-05-07 16:25 47.06427 10.51996 36996 ft 460 kts 157°
2026-05-07 16:25 47.00512 10.55234 36991 ft 452 kts 168°
2026-05-07 16:26 46.94473 10.57953 36994 ft 453 kts 167°
2026-05-07 16:26 46.88480 10.60657 36976 ft 453 kts 167°
2026-05-07 16:27 46.82449 10.63378 36981 ft 453 kts 168°
2026-05-07 16:27 46.76411 10.66096 36998 ft 454 kts 168°
2026-05-07 16:28 46.70349 10.68724 37003 ft 452 kts 170°
2026-05-07 16:28 46.64262 10.70777 36993 ft 450 kts 174°
2026-05-07 16:29 46.58135 10.72608 37005 ft 449 kts 173°
2026-05-07 16:29 46.52041 10.74511 37009 ft 450 kts 173°
2026-05-07 16:30 46.45922 10.76517 36998 ft 451 kts 172°
2026-05-07 16:30 46.39795 10.78533 37031 ft 450 kts 173°
2026-05-07 16:31 46.33689 10.80521 37036 ft 449 kts 173°
2026-05-07 16:31 46.27598 10.82487 37046 ft 449 kts 173°
2026-05-07 16:32 46.21488 10.84447 37049 ft 449 kts 173°
2026-05-07 16:32 46.15425 10.86403 37047 ft 449 kts 173°
2026-05-07 16:33 46.09326 10.88369 37045 ft 448 kts 173°
2026-05-07 16:33 46.03231 10.90332 37010 ft 448 kts 173°
2026-05-07 16:34 45.97147 10.92266 37011 ft 448 kts 173°
2026-05-07 16:34 45.91059 10.94201 37018 ft 448 kts 173°
2026-05-07 16:35 45.84971 10.96140 36995 ft 447 kts 173°
2026-05-07 16:35 45.78941 10.98058 36972 ft 447 kts 174°
2026-05-07 16:36 45.72870 10.99979 36979 ft 447 kts 174°
2026-05-07 16:36 45.66789 11.01892 36967 ft 446 kts 173°
2026-05-07 16:37 45.60708 11.03692 36963 ft 444 kts 176°
2026-05-07 16:37 45.54664 11.05130 36976 ft 441 kts 177°
2026-05-07 16:38 45.48593 11.06491 36978 ft 441 kts 177°
2026-05-07 16:38 45.42536 11.07910 36962 ft 441 kts 176°
2026-05-07 16:39 45.36498 11.09382 36977 ft 440 kts 176°
2026-05-07 16:39 45.31486 11.10612 36979 ft 439 kts 176°
2026-05-07 16:40 45.24478 11.12303 36980 ft 439 kts 177°
2026-05-07 16:40 45.18462 11.13733 36958 ft 437 kts 177°
2026-05-07 16:41 45.13425 11.14937 36971 ft 438 kts 177°
2026-05-07 16:41 45.07447 11.16355 36983 ft 438 kts 177°
2026-05-07 16:42 45.01418 11.17798 36969 ft 438 kts 177°
2026-05-07 16:42 44.95408 11.19227 37010 ft 437 kts 177°
2026-05-07 16:43 44.89446 11.20645 37019 ft 437 kts 177°
2026-05-07 16:43 44.86406 11.21363 36761 ft 437 kts 177°
2026-05-07 16:43 44.83444 11.22063 36509 ft 437 kts 177°
2026-05-07 16:43 44.80435 11.22775 36034 ft 437 kts 177°
2026-05-07 16:44 44.77418 11.23484 35262 ft 442 kts 178°
2026-05-07 16:44 44.74462 11.24173 34470 ft 446 kts 178°
2026-05-07 16:44 44.71378 11.24897 33555 ft 451 kts 178°
2026-05-07 16:44 44.68270 11.25629 32527 ft 455 kts 178°
2026-05-07 16:45 44.65128 11.26369 31500 ft 459 kts 178°
2026-05-07 16:45 44.61966 11.27116 30539 ft 462 kts 178°
2026-05-07 16:45 44.58781 11.27907 29317 ft 471 kts 174°
2026-05-07 16:45 44.55642 11.29343 28780 ft 472 kts 163°
2026-05-07 16:46 44.52737 11.31467 28126 ft 474 kts 153°
2026-05-07 16:46 44.50123 11.34302 27401 ft 478 kts 142°
2026-05-07 16:46 44.47794 11.37626 26697 ft 476 kts 139°
2026-05-07 16:46 44.45507 11.40944 25987 ft 471 kts 139°
2026-05-07 16:47 44.43259 11.44190 25310 ft 467 kts 139°
2026-05-07 16:47 44.41005 11.47430 24617 ft 463 kts 139°
2026-05-07 16:47 44.38722 11.50562 23961 ft 456 kts 144°
2026-05-07 16:47 44.36158 11.53062 23282 ft 443 kts 156°
2026-05-07 16:48 44.33377 11.54784 22668 ft 428 kts 167°
2026-05-07 16:48 44.30531 11.55731 22120 ft 414 kts 177°
2026-05-07 16:48 44.27702 11.55964 21597 ft 402 kts 186°
2026-05-07 16:48 44.24932 11.55831 21095 ft 395 kts 186°
2026-05-07 16:49 44.22192 11.55697 20585 ft 391 kts 186°
2026-05-07 16:49 44.19492 11.55568 20092 ft 386 kts 186°
2026-05-07 16:49 44.16824 11.55443 19583 ft 382 kts 186°
2026-05-07 16:49 44.14182 11.55298 19076 ft 378 kts 186°
2026-05-07 16:50 44.11606 11.55087 18687 ft 370 kts 187°
2026-05-07 16:50 44.09084 11.54839 18552 ft 355 kts 188°
2026-05-07 16:50 44.06667 11.54586 18433 ft 342 kts 188°
2026-05-07 16:50 44.04327 11.54342 18243 ft 332 kts 188°
2026-05-07 16:51 44.02055 11.54081 18043 ft 325 kts 192°
2026-05-07 16:51 43.99883 11.53315 17950 ft 320 kts 204°
2026-05-07 16:51 43.97900 11.51942 17554 ft 316 kts 215°
2026-05-07 16:51 43.96065 11.50353 17202 ft 314 kts 215°
2026-05-07 16:52 43.94219 11.48765 16849 ft 312 kts 214°
2026-05-07 16:52 43.92370 11.47183 16493 ft 310 kts 214°
2026-05-07 16:52 43.90536 11.45619 16162 ft 309 kts 214°
2026-05-07 16:52 43.88709 11.44061 15815 ft 307 kts 214°
2026-05-07 16:53 43.86887 11.42509 15458 ft 306 kts 214°
2026-05-07 16:53 43.85080 11.40970 15119 ft 304 kts 214°
2026-05-07 16:53 43.83276 11.39429 14777 ft 303 kts 213°
2026-05-07 16:53 43.81483 11.37898 14440 ft 302 kts 213°
2026-05-07 16:54 43.79688 11.36371 14103 ft 301 kts 213°
2026-05-07 16:54 43.77927 11.34875 13768 ft 300 kts 213°
2026-05-07 16:54 43.76169 11.33347 13407 ft 298 kts 217°
2026-05-07 16:54 43.74643 11.31441 13076 ft 294 kts 230°
2026-05-07 16:55 43.73292 11.29323 12745 ft 293 kts 230°
2026-05-07 16:55 43.71935 11.27211 12414 ft 292 kts 230°
2026-05-07 16:55 43.70581 11.25115 12090 ft 291 kts 229°
2026-05-07 16:55 43.69233 11.23032 11793 ft 288 kts 229°
2026-05-07 16:56 43.67916 11.21004 11700 ft 277 kts 229°
2026-05-07 16:56 43.66666 11.19081 11592 ft 268 kts 229°
2026-05-07 16:56 43.64239 11.15349 11004 ft 253 kts 229°
2026-05-07 16:57 43.63079 11.13575 10635 ft 245 kts 229°
2026-05-07 16:57 43.61944 11.11846 10195 ft 242 kts 229°
2026-05-07 16:57 43.60811 11.10122 9697 ft 241 kts 229°
2026-05-07 16:57 43.59701 11.08426 9177 ft 240 kts 229°
2026-05-07 16:58 43.58562 11.06687 8668 ft 244 kts 229°
2026-05-07 16:58 43.57429 11.04949 8161 ft 249 kts 229°
2026-05-07 16:58 43.56267 11.03161 7694 ft 252 kts 229°
2026-05-07 16:58 43.55099 11.01363 7286 ft 252 kts 229°
2026-05-07 16:59 43.53932 10.99569 6908 ft 250 kts 229°
2026-05-07 16:59 43.52774 10.97795 6543 ft 248 kts 228°
2026-05-07 16:59 43.51634 10.96056 6288 ft 241 kts 229°
2026-05-07 16:59 43.50526 10.94367 6030 ft 234 kts 228°
2026-05-07 17:00 43.49457 10.92706 5771 ft 229 kts 232°
2026-05-07 17:00 43.48867 10.90726 5508 ft 224 kts 264°
2026-05-07 17:00 43.49125 10.88688 5248 ft 214 kts 295°
2026-05-07 17:00 43.50052 10.87148 5005 ft 205 kts 318°
2026-05-07 17:01 43.51077 10.85899 4838 ft 193 kts 316°
2026-05-07 17:01 43.52073 10.84672 4725 ft 190 kts 316°
2026-05-07 17:01 43.53108 10.83558 4593 ft 189 kts 330°
2026-05-07 17:01 43.54358 10.82967 4461 ft 191 kts 351°
2026-05-07 17:02 43.55685 10.83026 4334 ft 192 kts 13°
2026-05-07 17:02 43.56906 10.83741 4209 ft 191 kts 35°
2026-05-07 17:02 43.57840 10.84951 4127 ft 181 kts 49°
2026-05-07 17:02 43.58683 10.86236 3990 ft 180 kts 48°
2026-05-07 17:03 43.59526 10.87520 3866 ft 179 kts 48°
2026-05-07 17:03 43.60337 10.88759 3728 ft 169 kts 48°
2026-05-07 17:03 43.61121 10.89956 3601 ft 167 kts 48°
2026-05-07 17:03 43.61890 10.91131 3471 ft 161 kts 47°
2026-05-07 17:04 43.62636 10.92273 3354 ft 159 kts 47°
2026-05-07 17:04 43.63364 10.93386 3220 ft 158 kts 47°
2026-05-07 17:04 43.64092 10.94501 3130 ft 156 kts 47°
2026-05-07 17:04 43.64861 10.95677 3066 ft 172 kts 47°
2026-05-07 17:05 43.65690 10.96947 3005 ft 183 kts 46°
2026-05-07 17:05 43.66550 10.98265 3008 ft 186 kts 46°
2026-05-07 17:05 43.67413 10.99588 3009 ft 185 kts 47°
2026-05-07 17:05 43.68284 11.00924 3012 ft 187 kts 47°
2026-05-07 17:06 43.69157 11.02264 3012 ft 187 kts 47°
2026-05-07 17:06 43.70030 11.03604 3011 ft 189 kts 47°
2026-05-07 17:06 43.70896 11.04935 2895 ft 188 kts 47°
2026-05-07 17:06 43.71787 11.06303 2682 ft 188 kts 47°
2026-05-07 17:07 43.72650 11.07631 2447 ft 188 kts 47°
2026-05-07 17:07 43.73519 11.08966 2193 ft 186 kts 47°
2026-05-07 17:07 43.74378 11.10288 1958 ft 184 kts 46°
2026-05-07 17:07 43.75189 11.11540 1720 ft 165 kts 46°
2026-05-07 17:08 43.75934 11.12687 1496 ft 156 kts 45°
2026-05-07 17:08 43.76649 11.13788 1297 ft 151 kts 46°
2026-05-07 17:08 43.77348 11.14865 1094 ft 150 kts 47°
2026-05-07 17:08 43.78048 11.15944 906 ft 150 kts 46°
2026-05-07 17:09 43.78734 11.17001 704 ft 145 kts 46°
2026-05-07 17:09 43.79395 11.18022 517 ft 140 kts 46°
2026-05-07 17:09 43.80036 11.19007 326 ft 137 kts 45°
2026-05-07 17:09 43.80669 11.19977 144 ft 135 kts 45°
2026-05-07 17:10 43.81202 11.20818 128 ft 93 kts 50°
2026-05-07 17:10 43.81446 11.21190 133 ft 22 kts 47°
2026-05-07 17:10 43.81489 11.21328 136 ft 12 kts 131°
2026-05-07 17:10 43.81440 11.21364 140 ft 5 kts 160°
2026-05-07 17:11 43.81423 11.21372 141 ft 0 kts 161°
2026-05-07 17:11 43.81414 11.21376 142 ft 3 kts 163°
2026-05-07 17:11 43.81387 11.21379 144 ft 3 kts 182°
2026-05-07 17:11 43.81359 11.21365 145 ft 8 kts 211°
2026-05-07 17:12 43.81308 11.21300 145 ft 12 kts 225°
2026-05-07 17:12 43.81261 11.21182 141 ft 17 kts 273°
2026-05-07 17:12 43.81263 11.20979 135 ft 24 kts 264°
2026-05-07 17:12 43.81178 11.20778 130 ft 27 kts 227°
2026-05-07 17:13 43.81056 11.20589 123 ft 29 kts 229°
2026-05-07 17:13 43.80936 11.20401 127 ft 25 kts 228°
2026-05-07 17:13 43.80817 11.20216 127 ft 17 kts 229°
2026-05-07 17:13 43.80745 11.20107 133 ft 18 kts 227°
2026-05-07 17:14 43.80631 11.20018 132 ft 17 kts 195°
2026-05-07 17:14 43.80541 11.19991 133 ft 13 kts 179°
2026-05-07 17:14 43.80473 11.20039 132 ft 7 kts 172°
2026-05-07 17:14 43.80472 11.20039 132 ft 0 kts 172°
2026-05-07 17:15 43.80433 11.20041 128 ft 11 kts 183°
2026-05-07 17:15 43.80367 11.20032 129 ft 11 kts 167°
2026-05-07 17:15 43.80324 11.20086 123 ft 0 kts 130°
2026-05-07 17:15 43.80322 11.20090 124 ft 0 kts 130°